CW0608 Weather Reports


time (UTC)temp
C
wind
direction
speed
KPH
gust
KPH
rain 1hr
cm
rain 24hr
cm
rain mn
cm
humidity
%
barometer
mb
20260510192804 24 146 3.2 9.7 0.00 0.00 0.00 60 1013.7
20260510191303 24 98 8.0 14.5 0.00 0.00 0.00 60 1013.7
20260510190303 25 37 3.2 16.1 0.00 0.00 0.00 59 1013.7
20260510185804 25 82 6.4 19.3 0.00 0.00 0.00 59 1013.8
20260510184304 25 28 8.0 14.5 0.00 0.00 0.00 58 1013.9
20260510183304 26 73 1.6 16.1 0.00 0.00 0.00 54 1013.8
20260510182804 27 35 3.2 16.1 0.00 0.00 0.00 45 1013.8
20260510181304 26 284 3.2 14.5 0.00 0.00 0.00 46 1013.8
20260510180805 27 258 8.0 14.5 0.00 0.00 0.00 45 1013.9
20260510175804 26 269 4.8 12.9 0.00 0.00 0.00 46 1013.8
20260510173804 25 262 8.0 16.1 0.00 0.00 0.00 47 1014.0
20260510172306 26 206 6.4 12.9 0.00 0.00 0.00 46 1014.0
20260510171804 26 315 3.2 12.9 0.00 0.00 0.00 48 1014.0
20260510171303 26 264 3.2 12.9 0.00 0.00 0.00 46 1013.9
20260510165803 26 142 4.8 27.4 0.00 0.00 0.00 47 1014.0
20260510165306 26 224 6.4 27.4 0.00 0.00 0.00 47 1014.0
20260510163803 26 178 6.4 19.3 0.00 0.00 0.00 48 1013.9
20260510163303 26 166 11.3 19.3 0.00 0.00 0.00 49 1014.0
20260510161303 25 177 3.2 14.5 0.00 0.00 0.00 48 1014.1
20260510160804 26 245 4.8 14.5 0.00 0.00 0.00 48 1014.2
20260510155804 25 176 3.2 9.7 0.00 0.00 0.00 53 1014.2
20260510154805 25 322 4.8 12.9 0.00 0.00 0.00 52 1014.3
20260510154303 25 207 3.2 9.7 0.00 0.00 0.00 56 1014.3
20260510153803 24 218 3.2 9.7 0.00 0.00 0.00 55 1014.3
20260510152804 24 226 4.8 12.9 0.00 0.00 0.00 56 1014.4
20260510150804 23 256 4.8 12.9 0.00 0.00 0.00 57 1014.2
20260510150305 23 276 8.0 16.1 0.00 0.00 0.00 59 1014.3
20260510144805 23 273 8.0 19.3 0.00 0.00 0.00 60 1014.1
20260510144306 22 277 6.4 14.5 0.00 0.00 0.00 61 1014.0
20260510143803 22 281 3.2 16.1 0.00 0.00 0.00 60 1014.0
20260510143304 22 278 6.4 16.1 0.00 0.00 0.00 60 1014.0
20260510142803 22 199 6.4 19.3 0.00 0.00 0.00 59 1013.9
20260510141804 21 243 4.8 12.9 0.00 0.00 0.00 60 1014.0
20260510133303 18 140 1.6 4.8 0.00 0.00 0.00 78 1014.1
20260510132805 18 138 1.6 3.2 0.00 0.00 0.00 80 1014.1
20260510131304 17 139 3.2 4.8 0.00 0.00 0.00 82 1013.9
20260510130805 17 271 1.6 4.8 0.00 0.00 0.00 83 1014.0
20260510125803 16 265 1.6 4.8 0.00 0.00 0.00 83 1014.1
20260510125306 16 265 3.2 4.8 0.00 0.00 0.00 83 1014.1
20260510124803 16 265 3.2 4.8 0.00 0.00 0.00 84 1014.3
20260510124305 16 238 1.6 4.8 0.00 0.00 0.00 84 1014.4
20260510123805 16 216 3.2 4.8 0.00 0.00 0.00 85 1014.4
20260510122804 15 265 1.6 4.8 0.00 0.00 0.00 87 1014.3
20260510121805 15 265 3.2 4.8 0.00 0.00 0.00 89 1014.2
20260510121303 14 267 3.2 4.8 0.00 0.00 0.00 90 1014.3
20260510115805 13 268 3.2 4.8 0.00 0.00 0.00 93 1014.0
20260510114804 13 215 1.6 4.8 0.00 0.00 0.00 95 1014.0
20260510113804 12 215 1.6 4.8 0.00 0.00 0.00 96 1013.8
20260510112803 12 208 1.6 4.8 0.00 0.00 0.00 97 1013.7
20260510111804 11 277 1.6 4.8 0.00 0.00 0.00 97 1013.6
20260510110304 10 280 3.2 9.7 0.00 0.00 0.00 97 1013.5
20260510105306 10 286 0.0 1.6 0.00 0.00 0.00 96 1013.4
20260510103804 9 286 1.6 1.6 0.00 0.00 0.00 96 1013.2
20260510102805 9 286 0.0 4.8 0.00 0.00 0.00 96 1013.1
20260510100305 8 190 0.0 0.0 0.00 0.00 0.00 96 1012.4
20260510094804 9 190 0.0 0.0 0.00 0.00 0.00 96 1012.4
20260510093305 9 292 0.0 0.0 0.00 0.00 0.00 96 1012.3
20260510092307 9 292 0.0 0.0 0.00 0.00 0.00 96 1012.4
20260510091804 9 292 0.0 0.0 0.00 0.00 0.00 96 1012.4
20260510085805 9 292 0.0 1.6 0.00 0.00 0.00 96 1012.4
20260510085306 10 292 0.0 3.2 0.00 0.00 0.00 96 1012.4
20260510082805 10 284 0.0 8.0 0.00 0.00 0.00 96 1012.3
20260510081304 9 256 1.6 4.8 0.00 0.00 0.00 96 1012.2
20260510080805 9 96 0.0 1.6 0.00 0.00 0.00 95 1012.1
20260510080306 9 96 0.0 1.6 0.00 0.00 0.00 95 1012.0
20260510074804 9 96 0.0 1.6 0.00 0.00 0.00 95 1011.7
20260510074305 9 96 0.0 1.6 0.00 0.00 0.00 95 1011.8
20260510072804 9 96 0.0 1.6 0.00 0.00 0.00 95 1011.8
20260510071804 10 96 0.0 1.6 0.00 0.00 0.00 95 1011.6
20260510070304 10 96 0.0 1.6 0.00 0.00 0.00 95 1011.5
20260510065804 10 96 0.0 1.6 0.00 0.00 0.00 95 1011.4
20260510064304 10 96 0.0 1.6 0.00 0.00 0.00 95 1011.2
20260510063306 10 96 0.0 1.6 0.00 0.00 0.00 95 1011.1
20260510061305 10 96 0.0 0.0 0.00 0.00 0.00 95 1011.2
20260510055805 10 96 0.0 1.6 0.00 0.00 0.00 95 1011.3
20260510054804 10 96 0.0 1.6 0.00 0.00 0.00 95 1011.4
20260510054304 10 96 0.0 1.6 0.00 0.00 0.00 94 1011.4
20260510050805 11 96 0.0 0.0 0.00 0.00 0.00 94 1011.5
20260510050305 11 96 0.0 1.6 0.00 0.00 0.00 94 1011.5
20260510045306 11 96 0.0 1.6 0.00 0.00 0.00 94 1011.6
20260510043304 11 96 0.0 0.0 0.00 0.00 0.00 94 1011.6
20260510042804 11 96 0.0 1.6 0.00 0.00 0.00 93 1011.7
20260510041304 11 96 0.0 1.6 0.00 0.00 0.00 93 1011.7
20260510034305 12 96 0.0 3.2 0.00 0.00 0.00 93 1011.7
20260510033806 12 96 0.0 3.2 0.00 0.00 0.00 92 1011.6
20260510032805 12 96 0.0 0.0 0.00 0.00 0.00 92 1011.6
20260510032306 12 96 0.0 0.0 0.00 0.00 0.00 92 1011.5
20260510031805 12 96 0.0 0.0 0.00 0.00 0.00 92 1011.6
20260510031305 12 96 0.0 0.0 0.00 0.00 0.00 92 1011.6
20260510030304 12 96 0.0 0.0 0.00 0.00 0.00 91 1011.5
20260510024805 12 96 0.0 1.6 0.00 0.00 0.00 90 1011.3
20260510023305 13 96 0.0 4.8 0.00 0.00 0.00 90 1011.3
20260510022805 13 102 1.6 4.8 0.00 0.00 0.00 89 1011.4
20260510022306 13 103 0.0 0.0 0.00 0.00 0.00 89 1011.2
20260510021805 13 103 0.0 0.0 0.00 0.00 0.00 89 1011.3
20260510021305 13 103 0.0 1.6 0.00 0.00 0.00 88 1011.4
20260510020304 13 103 0.0 3.2 0.00 0.00 0.00 88 1011.3
20260510015804 13 103 0.0 3.2 0.00 0.00 0.00 88 1011.2
20260510014805 13 103 0.0 3.2 0.00 0.00 0.00 87 1011.1
20260510013304 14 103 3.2 4.8 0.00 0.00 0.00 86 1010.9
20260510012804 14 106 1.6 3.2 0.00 0.00 0.00 85 1010.9
20260510005804 15 81 1.6 4.8 0.00 0.00 0.00 84 1010.7
20260510003305 15 133 1.6 4.8 0.00 0.00 0.00 82 1010.4
20260510001304 16 63 3.2 4.8 0.00 0.00 0.00 80 1010.3
20260510000804 16 75 3.2 4.8 0.00 0.00 0.00 79 1010.3
20260510000305 16 68 3.2 4.8 0.00 0.00 0.00 78 1010.3
20260509235306 16 65 1.6 4.8 0.00 0.00 0.00 78 1010.2
20260509234304 17 74 3.2 4.8 0.00 0.00 0.00 77 1010.1
20260509232805 17 33 1.6 11.3 0.00 0.00 0.00 76 1010.1
20260509231804 17 41 3.2 12.9 0.00 0.00 0.00 75 1009.9
20260509230305 18 57 4.8 16.1 0.00 0.00 0.00 73 1009.7
20260509225804 18 59 3.2 8.0 0.00 0.00 0.00 73 1009.7
20260509225306 18 66 1.6 8.0 0.00 0.00 0.00 73 1009.6
20260509224804 18 58 3.2 8.0 0.00 0.00 0.00 73 1009.7
20260509223806 18 87 3.2 12.9 0.00 0.00 0.00 72 1009.7
20260509223305 18 49 4.8 12.9 0.00 0.00 0.00 71 1009.8
20260509222307 19 71 3.2 14.5 0.00 0.00 0.00 70 1009.7
20260509221804 19 5 4.8 14.5 0.00 0.00 0.00 69 1009.7
20260509220805 19 118 4.8 11.3 0.00 0.00 0.00 70 1009.8
20260509220304 19 45 4.8 14.5 0.00 0.00 0.00 70 1009.9
20260509214305 20 55 3.2 8.0 0.00 0.00 0.00 70 1009.9
20260509213805 20 13 3.2 4.8 0.00 0.00 0.00 69 1009.8
20260509213305 20 67 3.2 4.8 0.00 0.00 0.00 66 1009.8
20260509212306 20 44 1.6 4.8 0.00 0.00 0.00 68 1009.8
20260509211306 20 116 1.6 4.8 0.00 0.00 0.00 66 1009.6
20260509205806 20 215 3.2 11.3 0.00 0.00 0.00 66 1009.5
20260509205307 20 58 3.2 9.7 0.00 0.00 0.00 64 1009.6
20260509204304 21 212 6.4 11.3 0.00 0.00 0.00 64 1009.6
20260509203304 21 128 3.2 12.9 0.00 0.00 0.00 66 1009.5
20260509195306 20 133 1.6 8.0 0.00 0.00 0.00 62 1010.1
20260509194805 20 53 3.2 8.0 0.00 0.00 0.00 63 1010.2